[ show orbit diagram ]
Orbital Elements at Epoch 2459200.5 (2020-Dec-17.0) TDB
Reference: JPL 32 (heliocentric ecliptic J2000)
Element | Value | Uncertainty (1-sigma) | Units |
e | .1176768544589509 | 3.9675e-08 | |
a | 2.673435325774249 | 1.2089e-08 | au |
q | 2.358833866037695 | 1.0958e-07 | au |
i | 13.86384949007464 | 4.3072e-06 | deg |
node | 131.1226695816721 | 1.4793e-05 | deg |
peri | 42.8019499632385 | 2.2363e-05 | deg |
M | 286.3932109589226 | 1.8924e-05 | deg |
tp | 2459526.951239940147 (2021-Nov-08.45123994) | 8.489e-05 | TDB |
period | 1596.625092732514 4.37 | 1.0829e-05 2.965e-08 | d yr |
n | .2254755995246729 | 1.5293e-09 | deg/d |
Q | 2.988036785510803 | 1.3511e-08 | au |
|
| | Orbit Determination Parameters
Additional Information
|
[ show covariance matrix ]
Physical Parameter Table
Parameter |
Symbol |
Value |
Units |
Sigma |
Reference |
Notes |
absolute magnitude |
H |
13.5 |
|
n/a |
MPO358778 |
|
rotation period |
rot_per |
10.571 |
h |
n/a |
LCDB (Rev. 2020-October); Warner et al., 2009 |
Result based on less than full coverage, so that the period may be wrong by 30 percent or so. Published Reference List: [Waszczak, A.; Chang, C.-K.; Ofeck, E.O.; Laher, F.; et al. (2015) Astron. J. 150, A75.] |
|
15149 Loufaix | Discovered 2000 Mar. 2 by the Catalina Sky Survey. |
Louis Faix (1933-2011), an amateur astronomer originally from the Detroit area in Michigan, retired to Saddlebrooke, Arizona. As an engineer he brought that experience into his hobby, inventing devices like the Faix Compensator, featured in an article in the May 1978 Sky & Telescope. |
NOTE: some special characters may not display properly (any characters within {} are an attempt to place the proper accent above a character) |
Reference: 20110715/MPCPages.arc | Last Updated: 2011-07-20 |
|
Alternate Designations
2000 EZ141 = 1979 OR12 = 1982 BK15 = 1998 XL79 |
|
|
|